When you browse on this site, cookies collect data to enhance your experience and personalize the content and advertising you see.
Visit our Privacy Policy to learn more. By continuing to use the site, you agree to this use of cookies and data.
  • In United Kingdom
  • List of Countries
  • For 7 days
  • Water Temperature
  • Weather Map
  • Weather Widgets
  • user-avatar
    Login

    Hourly Weather Runcorn

    Today, 18 September, Wednesday

    Time Temperature Precipitation Wind Pressure Humidity
    00:00 +11°C° 0 mm 1 mps 771 mmHg 84%
    01:00 +11°C° 0 mm 1 mps 771 mmHg 85%
    02:00 +10°C° 0 mm 1 mps 771 mmHg 85%
    03:00 +10°C° 0 mm 1 mps 771 mmHg 86%
    04:00 +10°C° 0 mm 1 mps 771 mmHg 87%
    05:00 +10°C° 0 mm 1 mps 771 mmHg 87%
    06:00 +9°C° 0 mm 1 mps 771 mmHg 87%
    07:00 +11°C° 0 mm 1 mps 771 mmHg 81%
    08:00 +13°C° 0 mm 1 mps 771 mmHg 75%
    09:00 +15°C° 0 mm 1 mps 772 mmHg 69%
    10:00 +16°C° 0 mm 1 mps 771 mmHg 65%
    11:00 +17°C° 0 mm 2 mps 771 mmHg 60%
    12:00 +18°C° 0 mm 2 mps 771 mmHg 55%
    13:00 +18°C° 0 mm 2 mps 771 mmHg 55%
    14:00 +18°C° 0 mm 3 mps 771 mmHg 56%
    15:00 +18°C° 0 mm 3 mps 771 mmHg 57%
    16:00 +17°C° 0 mm 3 mps 771 mmHg 62%
    17:00 +16°C° 0 mm 3 mps 771 mmHg 68%
    18:00 +14°C° 0 mm 2 mps 771 mmHg 73%
    19:00 +14°C° 0 mm 2 mps 771 mmHg 77%
    20:00 +13°C° 0 mm 2 mps 772 mmHg 80%
    21:00 +12°C° 0 mm 1 mps 772 mmHg 83%
    22:00 +12°C° 0 mm 1 mps 772 mmHg 84%
    23:00 +12°C° 0 mm 1 mps 772 mmHg 85%

    Tomorrow, 19 September, Thursday

    Time Temperature Precipitation Wind Pressure Humidity
    00:00 +12°C° 0 mm 1 mps 772 mmHg 87%
    01:00 +12°C° 0 mm 1 mps 772 mmHg 87%
    02:00 +12°C° 0 mm 1 mps 772 mmHg 87%
    03:00 +10°C° 0 mm 0 mps 772 mmHg 87%
    04:00 +10°C° 0 mm 0 mps 772 mmHg 88%
    05:00 +10°C° 0 mm 0 mps 772 mmHg 88%
    06:00 +10°C° 0 mm 0 mps 772 mmHg 89%
    07:00 +12°C° 0 mm 0 mps 772 mmHg 84%
    08:00 +13°C° 0 mm 0 mps 772 mmHg 80%
    09:00 +15°C° 0 mm 0 mps 772 mmHg 76%
    10:00 +16°C° 0 mm 0 mps 772 mmHg 71%
    11:00 +20°C° 0 mm 1 mps 772 mmHg 67%
    12:00 +21°C° 0 mm 1 mps 772 mmHg 63%
    13:00 +21°C° 0 mm 1 mps 772 mmHg 62%
    14:00 +21°C° 0 mm 1 mps 772 mmHg 61%
    15:00 +22°C° 0 mm 1 mps 771 mmHg 60%
    16:00 +20°C° 0 mm 1 mps 771 mmHg 66%
    17:00 +19°C° 0 mm 1 mps 771 mmHg 72%
    18:00 +18°C° 0 mm 1 mps 771 mmHg 78%
    19:00 +16°C° 0 mm 1 mps 771 mmHg 80%
    20:00 +16°C° 0 mm 1 mps 771 mmHg 83%
    21:00 +14°C° 0 mm 0 mps 771 mmHg 85%
    22:00 +14°C° 0 mm 0 mps 771 mmHg 86%
    23:00 +14°C° 0 mm 1 mps 771 mmHg 86%

    Day after tomorrow, 20 September, Friday

    Time Temperature Precipitation Wind Pressure Humidity
    00:00 +14°C° 0 mm 1 mps 771 mmHg 87%
    01:00 +14°C° 0 mm 1 mps 770 mmHg 87%
    02:00 +13°C° 0 mm 1 mps 770 mmHg 88%
    03:00 +13°C° 0 mm 1 mps 770 mmHg 88%
    04:00 +13°C° 0 mm 2 mps 769 mmHg 88%
    05:00 +13°C° 0 mm 2 mps 769 mmHg 88%
    06:00 +12°C° 0 mm 2 mps 769 mmHg 88%
    07:00 +13°C° 0 mm 3 mps 769 mmHg 83%
    08:00 +14°C° 0 mm 3 mps 769 mmHg 78%
    09:00 +16°C° 0 mm 3 mps 768 mmHg 72%
    10:00 +17°C° 0 mm 4 mps 768 mmHg 69%
    11:00 +19°C° 0 mm 4 mps 767 mmHg 66%
    12:00 +20°C° 0 mm 5 mps 767 mmHg 63%
    13:00 +20°C° 0 mm 5 mps 766 mmHg 62%
    14:00 +20°C° 0 mm 5 mps 765 mmHg 62%
    15:00 +21°C° 0 mm 5 mps 765 mmHg 61%
    16:00 +19°C° 0 mm 5 mps 764 mmHg 64%
    17:00 +17°C° 0 mm 5 mps 764 mmHg 67%
    18:00 +16°C° 0 mm 5 mps 763 mmHg 70%
    19:00 +16°C° 0 mm 5 mps 763 mmHg 67%
    20:00 +15°C° 0 mm 5 mps 763 mmHg 63%
    21:00 +14°C° 0 mm 6 mps 763 mmHg 60%
    22:00 +14°C° 0 mm 6 mps 762 mmHg 63%
    23:00 +13°C° 0 mm 6 mps 762 mmHg 65%

    21 September, Saturday

    Time Temperature Precipitation Wind Pressure Humidity
    00:00 +11°C° 0 mm 6 mps 761 mmHg 68%
    01:00 +11°C° 0 mm 6 mps 761 mmHg 70%
    02:00 +11°C° 0 mm 6 mps 760 mmHg 71%
    03:00 +11°C° 0 mm 6 mps 760 mmHg 73%
    04:00 +11°C° 0 mm 6 mps 759 mmHg 73%
    05:00 +12°C° 0 mm 5 mps 759 mmHg 73%
    06:00 +12°C° 0 mm 5 mps 758 mmHg 73%
    07:00 +13°C° 0 mm 6 mps 758 mmHg 69%
    08:00 +14°C° 0 mm 6 mps 757 mmHg 66%
    09:00 +15°C° 0 mm 6 mps 757 mmHg 62%
    10:00 +16°C° 0 mm 6 mps 757 mmHg 60%
    11:00 +19°C° 0 mm 6 mps 756 mmHg 57%
    12:00 +20°C° 0 mm 6 mps 756 mmHg 55%
    13:00 +21°C° 0 mm 6 mps 755 mmHg 55%
    14:00 +21°C° 0 mm 6 mps 754 mmHg 56%
    15:00 +22°C° 0 mm 6 mps 754 mmHg 56%
    16:00 +21°C° 0 mm 6 mps 753 mmHg 59%
    17:00 +20°C° 0 mm 6 mps 753 mmHg 61%
    18:00 +19°C° 0 mm 6 mps 753 mmHg 63%
    19:00 +19°C° 0 mm 6 mps 753 mmHg 64%
    20:00 +19°C° 0 mm 6 mps 752 mmHg 65%
    21:00 +17°C° 0 mm 6 mps 752 mmHg 65%
    22:00 +17°C° 0.2 mm 5 mps 752 mmHg 69%
    23:00 +16°C° 0.2 mm 5 mps 751 mmHg 73%

    22 September, Sunday

    Time Temperature Precipitation Wind Pressure Humidity
    00:00 +16°C° 0.2 mm 5 mps 751 mmHg 77%
    01:00 +16°C° 0.4 mm 5 mps 751 mmHg 80%
    02:00 +16°C° 0.4 mm 5 mps 750 mmHg 83%
    03:00 +16°C° 0.4 mm 5 mps 750 mmHg 87%
    04:00 +17°C° 0.4 mm 4 mps 750 mmHg 89%
    05:00 +17°C° 0.4 mm 4 mps 750 mmHg 91%
    06:00 +18°C° 0.4 mm 3 mps 750 mmHg 93%
    07:00 +18°C° 0.1 mm 3 mps 750 mmHg 89%
    08:00 +18°C° 0.1 mm 3 mps 751 mmHg 85%
    09:00 +18°C° 0.1 mm 3 mps 751 mmHg 82%
    10:00 +19°C° 0 mm 3 mps 751 mmHg 76%
    11:00 +19°C° 0 mm 4 mps 751 mmHg 70%
    12:00 +20°C° 0 mm 4 mps 751 mmHg 65%
    13:00 +20°C° 0 mm 4 mps 751 mmHg 63%
    14:00 +20°C° 0 mm 4 mps 751 mmHg 61%
    15:00 +20°C° 0 mm 4 mps 751 mmHg 59%
    16:00 +19°C° 0 mm 4 mps 751 mmHg 63%
    17:00 +18°C° 0 mm 4 mps 751 mmHg 67%
    18:00 +17°C° 0 mm 4 mps 751 mmHg 72%
    19:00 +15°C° 0 mm 4 mps 752 mmHg 75%
    20:00 +14°C° 0 mm 4 mps 753 mmHg 78%
    21:00 +13°C° 0 mm 4 mps 753 mmHg 82%
    22:00 +13°C° 0 mm 4 mps 753 mmHg 82%
    23:00 +12°C° 0 mm 4 mps 754 mmHg 83%

    23 September, Monday

    Time Temperature Precipitation Wind Pressure Humidity
    00:00 +12°C° 0 mm 4 mps 754 mmHg 83%
    01:00 +11°C° 0 mm 3 mps 754 mmHg 84%
    02:00 +11°C° 0 mm 3 mps 754 mmHg 85%
    03:00 +11°C° 0 mm 3 mps 755 mmHg 87%
    04:00 +10°C° 0 mm 3 mps 755 mmHg 87%
    05:00 +10°C° 0 mm 3 mps 755 mmHg 88%
    06:00 +10°C° 0 mm 2 mps 755 mmHg 89%
    07:00 +11°C° 0 mm 3 mps 755 mmHg 84%
    08:00 +12°C° 0 mm 4 mps 755 mmHg 80%
    09:00 +14°C° 0 mm 4 mps 755 mmHg 76%
    10:00 +15°C° 0 mm 5 mps 754 mmHg 73%
    11:00 +16°C° 0 mm 5 mps 754 mmHg 71%
    12:00 +17°C° 0 mm 6 mps 754 mmHg 69%
    13:00 +16°C° 0.2 mm 5 mps 753 mmHg 74%
    14:00 +16°C° 0.2 mm 5 mps 753 mmHg 80%
    15:00 +15°C° 0.2 mm 5 mps 752 mmHg 86%
    16:00 +15°C° 0.3 mm 5 mps 752 mmHg 88%
    17:00 +15°C° 0.3 mm 5 mps 752 mmHg 89%
    18:00 +15°C° 0.3 mm 5 mps 752 mmHg 91%
    19:00 +15°C° 0 mm 4 mps 752 mmHg 92%
    20:00 +16°C° 0 mm 3 mps 752 mmHg 93%
    21:00 +14°C° 0 mm 3 mps 753 mmHg 94%
    22:00 +14°C° 0 mm 3 mps 753 mmHg 94%
    23:00 +14°C° 0 mm 3 mps 753 mmHg 93%
    Show more